Regional Weather Roundup
Issued by NWS Spokane, WA

Home | Current Version | Previous Version | Text Only | Print | Product List | Glossary On
Versions: 1 2 3 4 5 6 7 8 9 10 11 12 13 14 15 16 17 18 19 20 21 22 23 24 25 26 27 28 29 30 31 32 33 34 35 36 37 38 39 40 41 42 43 44 45 46 47 48 49 50
000
NZUS01 KOTX 270125
RWROTX

Eastern Washington/Northern Idaho Roundup
National Weather Service, Spokane WA
600 PM PDT THU APR 26 2018

Note: "fair" indicated few or no clouds below 12,000 feet with no
significant weather and/or obstructions to visibility.

...Northeast Washington and Northern Idaho Panhandle...

CITY           SKY/WX    TMP DP  RH WIND       PRES   REMARKS
Spokane Intl   FAIR      76  28  17 NW3       30.02F
Spokane Downto FAIR      77  32  19 CALM      30.00F
Coeur d Alene  FAIR      77  29  17 E3        30.01F
Deer Park      SUNNY     75  31  19 SW5       30.02F
Sandpoint      SUNNY     72  34  25 CALM      30.01F
Bonners Ferry  FAIR      75  27  16 CALM      30.01F

...Southeast Washington and southern Idaho Panhandle...

CITY           SKY/WX    TMP DP  RH WIND       PRES   REMARKS
Walla Walla    SUNNY     77  52  41 N7        29.93F
Pullman/Moscow SUNNY     75  27  17 CALM      30.02F
Lewiston       SUNNY     82  30  15 E3        29.95F
Lowell           N/A     67  47  48 N3        29.94F
Grangeville    FAIR      70  41  35 NE8       30.03F

...Columbia Basin...

CITY           SKY/WX    TMP DP  RH WIND       PRES   REMARKS
Ephrata        SUNNY     80  32  17 N6        29.97F
Moses Lake     SUNNY     80  35  19 N7        29.97F
Pasco          SUNNY     81  51  35 NW8       29.91F
Richland       CLEAR     83  43  24 N7        29.91F
Hermiston      SUNNY     82  44  26 E5        29.91F
Pendleton      SUNNY     77  45  32 NE8       29.94F

...East Slopes Cascades...

CITY           SKY/WX    TMP DP  RH WIND       PRES   REMARKS
The Dalles     SUNNY     84  35  17 E9        29.88F
Yakima         SUNNY     82  32  16 CALM      29.95F
Ellensburg     SUNNY     78  31  17 SE5       29.98F
Wenatchee      SUNNY     77  30  17 S6        29.97F
Winthrop       FAIR      76  31  19 SE9       29.99F
Omak           SUNNY     77  31  18 S7        29.99F
Sunnyside      CLEAR     78  38  24 NE6       29.94F

...Southern British Columbia...

CITY           SKY/WX    TMP DP  RH WIND       PRES   REMARKS
Penticton      SUNNY     70  36  28 N7        29.98F
Castlegar      SUNNY     72  27  18 N10       29.99F
Cranbrook      MOSUNNY   72  27  18 E6        30.05F
Osoyoos          N/A     79  30  17 S5          N/A
Creston          N/A     70  39  32 NW5         N/A

...Western Montana...

CITY           SKY/WX    TMP DP  RH WIND       PRES   REMARKS
Kalispell      PTCLDY    72  25  17 S6        30.06F
Libby            N/A     75  25  15 S6        30.01F
Missoula       SUNNY     74  35  24 VRB3      30.04F

...Neighboring Cities...

CITY           SKY/WX    TMP DP  RH WIND       PRES   REMARKS
Seattle        SUNNY     80  43  26 N12       29.88F
Portland       MOSUNNY   84  50  30 W10       29.81F
Boise          SUNNY     79  33  19 S7        29.98F
Great Falls    SUNNY     72  25  17 CALM      30.08F
Calgary        MOSUNNY   66  32  28 E10       30.09F



USA.gov is the U.S. government's official web portal to all federal, state and local government web resources and services.